Regional Weather Roundup
Issued by NWS Lake Charles, LA

Home | Current Version | Previous Version | Text Only | Print | Product List | Glossary On
Versions: 1 2 3 4 5 6 7 8 9 10 11 12 13 14 15 16 17 18 19 20 21 22 23 24 25 26 27 28 29 30 31 32 33 34 35 36 37 38 39 40 41 42 43 44 45 46 47 48 49 50
000
ASUS44 KLCH 311310
RWRLCH
RWRLCH
REGIONAL WEATHER ROUNDUP
NATIONAL WEATHER SERVICE LAKE CHARLES LA
700 AM CST SAT JAN 31 2015

Note: "fair" indicates few or no clouds below 12,000 feet with no
significant weather and/or obstructions to visibility.


ACROSS SOUTHEAST TEXAS

CITY           SKY/WX    TMP DP  RH WIND       PRES   REMARKS
BEAUMONT       MOCLDY    45  38  76 NE9       30.23R
BEAUMONT CITY    N/A     43  36  74 E3        30.24S
ORANGE         PTSUNNY   40  37  87 NE6       30.26R
JASPER         MOCLDY    40  34  80 E6        30.27S
$$

ACROSS CENTRAL LOUISIANA

CITY           SKY/WX    TMP DP  RH WIND       PRES   REMARKS
LEESVILLE      MOCLDY    41  32  72 E8        30.26S
FULLERTON        N/A     40  33  76 CALM      30.25S
ALEXANDRIA INT CLEAR     41  32  70 E9        30.28S
ESLER FIELD    CLEAR     34  32  92 CALM      30.30S
DERIDDER         N/A     41  32  70 CALM      30.28R
OAKDALE        MOSUNNY   32  31  95 CALM      30.29S
OPELOUSAS        N/A     38  32  76 NE5       30.29S
$$

ACROSS SOUTHWEST AND SOUTH CENTRAL LOUISIANA

CITY           SKY/WX    TMP DP  RH WIND       PRES   REMARKS
SULPHUR        MOSUNNY   44  35  70 E9        30.26R
LAKE CHARLES   PTCLDY    41  35  79 E8        30.25S
CHENNAULT INT  CLEAR     41  36  81 E6        30.26S
CAMERON PHI    SUNNY     43  39  87 E9        30.26F
DEQUINCY         N/A     40  34  77 E3        30.25S
JENNINGS         N/A     40  34  78 E9        30.26F
LAFAYETTE      PTCLDY    43  33  68 E6        30.28S
NEW IBERIA     PTCLDY    44  34  67 E8        30.28S
ABBEVILLE        N/A     38  34  85 NE3       30.28R
PATTERSON      CLEAR     43  36  75 NE8       30.29R
SALT POINT       N/A     41  38  89 CALM      30.26R
$$

SELECTED SITES ACROSS THE REGION

CITY           SKY/WX    TMP DP  RH WIND       PRES   REMARKS
HOUSTON BUSH   MOCLDY    42  37  82 NE7       30.22R
HOUSTON HOBBY  MOCLDY    49  44  83 NE9       30.20R
GALVESTON      CLOUDY    57  50  77 E13       30.19F
COLLEGE STAT   CLOUDY    45  35  68 E8        30.20F
CONROE         PTCLDY    40  34  79 E3        30.23R
HUNTSVILLE     PTCLDY    42  34  73 E3        30.23R
LUFKIN         MOCLDY    42  35  76 E5        30.24S
SHREVEPORT     CLOUDY    42  32  67 E6        30.28R
MONROE         CLOUDY    38  31  76 CALM      30.34R
NATCHEZ MS     CLOUDY    37  28  70 E6        30.32S
BATON ROUGE    CLEAR     36  29  75 NE6       30.31R
N.O. INTL ARPT PTCLDY    45  37  73 E6        30.30R
SLIDELL        CLEAR     32  28  85 N3        30.31R
$$

MARINE REPORTS

STATION/POSITION TIME  TEMP    WIND        PRES    VSBY  WAVE
                       AIR SEA DIR/SP/G                  HT/PER
                 (UTC) (F)     (DEG/KT/KT) (MB)    (MI)  (FT/S)
BUOY 30 S HIGH I 1300   58 57  100/ 16/ 17 1022.0S         4/ 5
SEA RIM ST PARK  1300   45      60/  7/  9 1023.9S
PORT ARTHUR      1300      54   80/  9/ 11 1023.6F
SABINE PASS N    1300   46 54   70/  9/ 11 1023.5F
TEXAS POINT      NOT AVBL
CALCASIEU PASS   1300   44 54   90/ 10/ 11   N/A
LK CHARLES BEACH 1300   42 54              1024.5R
MARSH ISLAND     1200   52     110/ 18/ 20   N/A
FRESH WATER LOCK 1300   48 58   60/ 10/ 13 1024.2F
AMERADA PASS     1300   44 47   70/  4/  5 1024.8R
$$



USA.gov is the U.S. government's official web portal to all federal, state and local government web resources and services.